Regional Weather Roundup
Issued by NWS

Home | Current Version | Previous Version | Text Only | Print | Product List | Glossary On
Versions: 1 2 3 4 5 6 7 8 9 10 11 12 13 14 15 16 17 18 19 20 21 22 23 24 25 26 27 28 29 30 31 32 33 34 35 36 37 38 39 40 41 42 43 44 45 46 47 48 49 50
000
ASUS44 KFWD 262002
RWRTX
NORTH TEXAS HOURLY WEATHER ROUNDUP
NATIONAL WEATHER SERVICE FORT WORTH TX
ISSUED BY NWS SHREVEPORT LA
200 PM CST WED NOV 26 2014

NOTE: "FAIR" INDICATES FEW OR NO CLOUDS BELOW 12,000 FEET WITH NO
SIGNIFICANT WEATHER AND/OR OBSTRUCTIONS TO VISIBILITY.

TXZ118-119-262100-
DALLAS/FORT WORTH METROPLEX

CITY           SKY/WX    TMP DP  RH WIND       PRES   REMARKS
DFW AIRPORT    MOSUNNY   63  32  31 N15       30.17R
DALLAS LOVE    MOSUNNY   65  33  30 N12       30.17R
FTW MEACHAM    SUNNY     65  35  33 N10G21    30.17R
DAL-EXECUTIVE  SUNNY     67  31  26 NW12      30.15S
FTW-ALLIANCE   MOSUNNY   63  34  33 N17       30.18R
FTW-NAS-JRB      N/A    N/A N/A N/A MISG      30.22R
FTW-SPINKS     SUNNY     66  34  30 N14G20    30.18R
ARLINGTON      SUNNY     67  30  25 N12       30.17R
ADDISON        SUNNY     63  30  29 NW14G21   30.19R
$$

TXZ091>094-102>105-117-120-121-131>134-262100-
NORTH CENTRAL TEXAS

CITY           SKY/WX    TMP DP  RH WIND       PRES   REMARKS
SHRMAN/DENISON SUNNY     62  38  39 NW13      30.18S
DENTON         SUNNY     62  33  33 N14       30.18R
MCKINNEY       SUNNY     63  33  32 N13       30.16R
TERRELL        SUNNY     68  31  25 N10       30.15S
$$

TXZ083>090-098>101-113>116-127>130-139>142-154-155-262100-
WESTERN NORTH TEXAS

CITY           SKY/WX    TMP DP  RH WIND       PRES   REMARKS
WICHITA FALLS  MOSUNNY   59  35  40 N14       30.20F
ABILENE        SUNNY     60  33  36 N14G20    30.22F
ABILENE-DYESS  SUNNY     58  34  40 N10       30.22F
MINERAL WELLS  SUNNY     62  34  35 N13       30.19R
STEPHENVILLE   SUNNY     64  31  28 N13       30.21S
$$

TXZ143>147-156>162-174-175-262100-
CENTRAL TEXAS

CITY           SKY/WX    TMP DP  RH WIND       PRES   REMARKS
WACO           SUNNY     69  28  21 N10       30.15F
WACO-MCGREGOR  SUNNY     68  30  24 N9        30.17S
CORSICANA      SUNNY     67  28  23 NW9       30.16S
TEMPLE         SUNNY     70  28  21 N6        30.16R
KILLEEN-GRAY   SUNNY     67  26  21 NW12      30.17S
KILLEEN-SKYLRK SUNNY     70  28  21 NW10      30.15S
FORT HOOD      SUNNY     72  27  18 NW8       30.17R
$$

TXZ095>097-106>112-122>126-135>138-148>153-164>167-262100-
EAST TEXAS

CITY           SKY/WX    TMP DP  RH WIND       PRES   REMARKS
PARIS          SUNNY     61  28  29 N16G25    30.15R
TYLER          SUNNY     66  29  24 VRB6      30.13S
LONGVIEW       SUNNY     66  29  24 W8G18     30.12R
JACKSONVILLE   SUNNY     66  29  24 W7        30.15S
NACOGDOCHES    SUNNY     68  36  30 SW10G17   30.14R
LUFKIN         SUNNY     72  34  24 W10G21    30.14S
$$

SUPPLEMENTAL OBSERVATIONS (CENTRAL)

CITY           SKY/WX    TMP DP  RH WIND       PRES   REMARKS
$$

SUPPLEMENTAL OBSERVATIONS (WEST)

CITY           SKY/WX    TMP DP  RH WIND       PRES   REMARKS
$$

SUPPLEMENTAL OBSERVATIONS (EAST)

CITY           SKY/WX    TMP DP  RH WIND       PRES   REMARKS
$$

SUPPLEMENTAL OBSERVATIONS ARE A COLLECTION OF AUTOMATED INSTRUMENTS
THAT ARE MAINTAINED BY A VARIETY OF FEDERAL AND STATE AGENCIES.
CERTAIN ELEMENTS...SUCH AS HUMIDITY VALUES AND SUSTAINED WIND
SPEEDS...MAY BE ESTIMATED.



USA.gov is the U.S. government's official web portal to all federal, state and local government web resources and services.